Location: Hohenfelde
(53.8441°N, 9.6220°E)
Time: 12:38:00
(UTC+00:00)

Cosmos 1980 Rocket - Pass Details

Date: 14 July 2020
Orbit: 828 x 851 km, 71.0° (Epoch: 13 August)

Event Time Altitude Azimuth Distance (km) Brightness Sun altitude
Rises 01:38:18 0° 327° (NNW) 3,431 5.7 -9.4°
Reaches altitude 10° 01:40:45 10° 326° (NW) 2,491 5.0 -9.2°
Maximum altitude 01:46:29 79° 241° (WSW) 873 2.2 -8.8°
Drops below altitude 10° 01:52:10 10° 156° (SSE) 2,469 4.3 -8.3°
Sets 01:54:35 0° 155° (SSE) 3,398 5.0 -8.1°
